Location: DARK SKY Beskydy - Park tmavé oblohy, www.darkskybeskydy.cz
(49.4926°N, 18.5016°E)
Time: 03:44:13
(UTC+02:00)

A-11 Canister half - Pass Details

Date: 24 February 2024
Orbit: 1513 x 1686 km, 47.2° (Epoch: 24 April)

Event Time Altitude Azimuth Distance (km) Brightness Sun altitude
Rises 23:25:00 0° 179° (S) 4,923 - -49.3°
Reaches altitude 10° 23:29:44 10° 161° (SSE) 3,942 - -49.4°
Maximum altitude 23:35:24 17° 126° (SE) 3,427 - -49.6°
Drops below altitude 10° 23:41:02 10° 91° (E) 3,928 - -49.7°
Exits shadow 23:43:46 - 79° (E) 4,457 11.4 -49.8°
Sets 23:45:42 0° 73° (ENE) 4,897 11.7 -49.8°
